OpenBCM V1.13 (Linux)

Packet Radio Mailbox

DB0FHN

[JN59NK Nuernberg]

 Login: GUEST





  
I6KZR  > KEPLER   12.02.03 21:45l 317 Lines 15752 Bytes #999 (0) @ WW
BID : 23353_IK6WID
Read: DB0FHN GUEST
Subj: 2L Keplerian Elements #043
Path: DB0FHN<DB0ZWI<DB0HST<HB9OK<IK6PYS<IW6CBN<I6ZLO<IK6WID
Sent: 030212/1933Z @:IK6WID.#AP.IMAR.ITA.EU #:23353 [MONTE URANO]  FBB7.00i
From: I6KZR@IK6WID.#AP.IMAR.ITA.EU
To  : KEPLER@WW


OSCAR 7
1 07530U 74089B   03042.66870970 -.00000029 +00000-0 +10000-3 0 01713
2 07530 101.7634 090.5201 0012308 091.3936 268.8542 12.53564322292327
GOES 2
1 10061U 77048A   03041.64344854 -.00000146  00000-0  00000+0 0   846
2 10061  14.1321  13.4869 0012973 199.7553 160.2330  0.99401033 38751
GOES 3
1 10953U 78062A   03041.95619567 -.00000089  00000-0  00000+0 0  9208
2 10953  13.4062  17.2881 0005282 341.4098  18.6073  1.00279001 43427
GOES 6
1 14050U 83041A   03040.07554305  .00000050  00000-0  10000-3 0  4211
2 14050  10.3882  35.5600 0003554 347.4720  12.5737  1.00299948130547
OSCAR 10
1 14129U 83058B   03041.63642645  .00000117  00000-0  10000-3 0  9167
2 14129  25.9157 165.6251 6028355 326.7167   6.8087  2.05866882119909
OSCAR 11 (UoSAT 2)
1 14781U 84021B   03042.97663186 +.00001664 +00000-0 +23801-3 0 00716
2 14781 098.1167 016.8493 0008312 229.3011 130.7478 14.77975302015267
NOAA 10
1 16969U 86073A   03043.02778943  .00000179  00000-0  91549-4 0  6586
2 16969  98.7289  37.1513 0013306 104.8050 255.4604 14.27061202852979
GOES 7
1 17561U 87022A   03042.22726208  .00000057  00000-0  10000-3 0  8486
2 17561   7.5879  55.5875 0005361 259.3025  89.5646  1.00251325 41668
COSMOS 1861
1 18129U 87054A   03042.95060966 +.00000085 +00000-0 +75753-4 0 02183
2 18129 082.9262 151.4520 0010136 244.8849 115.1251 13.72700401783605
EUTELSAT 1-F4 (ECS 4)
1 18351U 87078B   03041.85078528 -.00000215  00000-0  00000+0 0   392
2 18351   7.1816  58.7102 0006861 199.9005 160.1802  0.98690122 42607
NOAA 11
1 19531U 88089A   03043.00420462  .00000189  00000-0  12199-3 0  4965
2 19531  98.9019 124.4080 0011173 218.5785 141.4591 14.14534408741871
ASTRA 1A
1 19688U 88109B   03043.01219909  .00000043  00000-0  10000-3 0  5738
2 19688   1.3633  94.7853 0004343 214.7365 201.7041  1.00273826 32131
OSCAR 14 (UOSAT 3)
1 20437U 90005B   03042.71746116  .00000144  00000-0  69990-4 0  1620
2 20437  98.2738  86.6578 0009880 220.4762 139.5685 14.31235469681519
OSCAR 15 (UOSAT 4)
1 20438U 90005C   03042.59214888  .00000106  00000-0  56522-4 0  7758
2 20438  98.2483  75.6901 0008998 233.1523 126.8831 14.30195937681167
OSCAR 16 (PACSAT)
1 20439U 90005D   03042.66359109  .00000171  00000-0  79961-4 0  8501
2 20439  98.3189  98.2503 0010232 227.1556 132.8774 14.31469107681543
OSCAR 17 (DOVE)
1 20440U 90005E   03042.72373507 +.00000200 +00000-0 +90410-4 0 07355
2 20440 098.3381 102.1852 0010168 226.6187 133.4155 14.31746773681629
OSCAR 18 (WEBERSAT)
1 20441U 90005F   03043.55341348  .00000177  00000-0  82113-4 0   106
2 20441  98.3334 102.1958 0010988 223.3930 136.6391 14.31551298681729
OSCAR 19 (LUSAT)
1 20442U 90005G   03043.18308877  .00000196  00000-0  89191-4 0  9615
2 20442  98.3481 104.8534 0011089 225.9556 134.0715 14.31714097681727
JAS 1B (FUJI 2)
1 20480U 90013C   03042.91947156 +.00000029 +00000-0 +13569-3 0 04801
2 20480 099.0462 006.9124 0540659 018.9361 343.1022 12.83330011609669
HST
1 20580U 90037B   03043.29294031  .00002286  00000-0  17664-3 0  3241
2 20580  28.4682  78.8453 0004391 199.7270 247.3060 14.97793282501699
EUTELSAT 2-F1
1 20777U 90079B   03042.63184869  .00000000  00000-0  10000-3 0   289
2 20777   3.4849  84.6308 0000767 316.5613  43.5275  1.00267887 26033
FENGYUN 1B
1 20788U 90081A   03043.53958225 -.00000166  00000-0 -79718-4 0  8802
2 20788  99.0260  25.7785 0014976 246.6638 113.2951 14.02133618636690
EUTELSAT 2-F2
1 21056U 91003B   03042.94793404 +.00000128 +00000-0 +10000-3 0 06189
2 21056 002.7155 088.0008 0003126 262.0595 181.2339 01.00276341031815
INFORMATOR 1
1 21087U 91006A   03042.86356464 +.00000077 +00000-0 +64528-4 0 06298
2 21087 082.9433 322.3715 0033815 270.4523 089.2757 13.74925705603960
COSMOS 2123
1 21089U 91007A   03042.91589877 +.00000066 +00000-0 +53638-4 0 05065
2 21089 082.9230 186.3102 0028217 307.3175 052.5409 13.74403404602871
ASTRA 1B
1 21139U 91015A   03041.00000000  .00000129  00000-0  10000-3 0  1606
2 21139   0.0122 319.8851 0002995  65.1991 133.7503  1.00273184 32108
METEOSAT 5 (MOP 2)
1 21140U 91015B   03042.68874060  .00000028  00000-0  10000-3 0  7141
2 21140   5.6137  69.9936 0001825 155.8407 226.2165  1.00272467 45989
NOAA 12
1 21263U 91032A   03043.02423043  .00000341  00000-0  16393-3 0  9653
2 21263  98.6252  32.7621 0013667  42.9930 317.2315 14.25075874610281
OSCAR 22 (UoSAT 5)
1 21575U 91050B   03042.97237765 +.00000355 +00000-0 +12784-3 0 07288
2 21575 098.1403 035.4268 0007737 146.1573 214.0112 14.39149254607338
METEOR 3-5
1 21655U 91056A   03042.98870610 +.00000051 +00000-0 +10000-3 0 05590
2 21655 082.5541 043.5073 0012418 212.3686 147.6672 13.16979813552612
UARS
1 21701U 91063B   03042.64493214  .00000908  00000-0  86140-4 0  8227
2 21701  56.9811  60.0761 0004772 113.1258 247.0282 15.02843149624671
EUTELSAT 2-F3
1 21803U 91083A   03042.92968172  .00000136  00000-0  10000-3 0  5224
2 21803   2.5812  89.1760 0003183 279.4172 129.1437  1.00276864 36934
INMARSAT 2-F3
1 21814U 91084B   03042.46173707  .00000120  00000-0  10000-3 0  6154
2 21814   1.7314  57.8966 0002634 269.8012 197.6189  1.00275297 40826
INMARSAT 2-F4
1 21940U 92021B   03042.63589014 -.00000343  00000-0  10000-3 0  5693
2 21940   2.3682  19.1844 0001760 301.4959 158.4980  1.00267939 39612
EUTELSAT 2-F4
1 22028U 92041B   03042.96397571 -.00000092  00000-0  10000-3 0  3301
2 22028   1.7004  92.6307 0006133 228.8508 154.8375  1.00271936 31715
OSCAR 23 (KITSAT 1)
1 22077U 92052B   03042.95942732 -.00000037 +00000-0 +10000-3 0 02589
2 22077 066.0870 139.5698 0015486 275.6416 084.2836 12.86408128493459
ASTRA 1C
1 22653U 93031A   03042.07390899  .00000000  00000-0  10000-3 0  7877
2 22653   0.0227 240.3506 0029782 158.1575 147.7036  1.00272361 30813
METEOR 2-21
1 22782U 93055A   03042.59193331 -.00000003  00000-0 -15932-4 0  5159
2 22782  82.5466 220.4260 0022583   9.2180 350.9386 13.83531358477125
KITSAT B
1 22825U 93061C   03043.17046128  .00000164  00000-0  81003-4 0  4843
2 22825  98.2756  73.1930 0007658 281.9451  78.0873 14.28940702488962
POSAT 1
1 22826U 93061D   03042.64164477  .00000164  00000-0  80713-4 0  3063
2 22826  98.2760  73.8034 0008314 284.1722  75.8536 14.29163169488939
ITAMSAT
1 22828U 93061F   03042.62362119  .00000125  00000-0  65144-4 0  4234
2 22828  98.2713  74.0492 0009110 258.0598 101.9562 14.29505524457139
EYESAT A
1 22829U 93061G   03043.12394727  .00000226  00000-0  10389-3 0  4480
2 22829  98.2732  75.1276 0008914 257.7082 102.3101 14.29764712489133
METEOSAT 6
1 22912U 93073B   03041.98342015  .00000074  00000-0  00000+0 0  6759
2 22912   2.6574  82.5051 0000882 234.1423 187.7120  1.00280377 32223
GOES 8
1 23051U 94022A   03043.39643089 -.00000242  00000-0  00000+0 0  6029
2 23051   0.2821 103.2549 0000983 302.7965 163.7640  1.00279312 39747
ASTRA 1D
1 23331U 94070A   03042.01107640  .00000149  00000-0  00000+0 0  8149
2 23331   0.0641 227.0953 0003407 116.2764 185.4062  1.00272529 30797
RADIO ROSTO
1 23439U 94085A   03043.17384244 -.00000020  00000-0  64479-3 0  6814
2 23439  64.8158  51.8227 0146940 116.4332 245.1781 11.27547909334872
NOAA 14
1 23455U 94089A   03043.03175222  .00000133  00000-0  95886-4 0  5196
2 23455  99.1876  61.4278 0008626 246.9754 113.0517 14.13294263418554
HIMAWARI 5 (GMS 5)
1 23522U 95011B   03042.49407957 -.00000272  00000-0  00000+0 0   963
2 23522   1.7621  83.4200 0002381 131.3265 244.1836  1.00281910 28825
HOT BIRD 1
1 23537U 95016B   03013.80550721  .00000107  00000-0  10000-3 0  5332
2 23537   0.0070 236.2796 0008090  86.9786  92.5958  1.00275871 28611
GOES 9
1 23581U 95025A   03038.51389009  .00000137  00000-0  00000+0 0  5063
2 23581   0.2984 277.9200 0012483 254.1862   2.0839  1.00052947 28254
INMARSAT 3-F1
1 23839U 96020A   03041.71371324  .00000026  00000-0  00000+0 0  8657
2 23839   0.0579 346.1748 0005336 355.2221 119.7649  1.00272958 25130
ASTRA 1F
1 23842U 96021A   03041.00000000  .00000130  00000-0  10000-3 0  5595
2 23842   0.0122 319.8851 0002995  65.1991 133.7951  1.00273184 25032
JAS 2
1 24278U 96046B   03042.95928044 +.00000040 +00000-0 +79375-4 0 05678
2 24278 098.5352 195.0755 0349953 233.6137 123.2246 13.52871742320417
UNAMSAT
1 24305U 96052B   03042.71299591 +.00000205 +00000-0 +20364-3 0 06743
2 24305 082.9334 267.8560 0028817 220.7034 139.1966 13.73450730322547
INMARSAT 3-F2
1 24307U 96053A   03038.02787617 -.00000120  00000-0  00000+0 0   805
2 24307   0.0630  35.8581 0006606 335.3144 120.0042  1.00271971 23505
HOT BIRD 2
1 24665U 96067A   03022.98977813  .00000000  00000-0  10000-3 0  3404
2 24665   0.0347 162.8644 0004202 151.1719 177.1880  1.00271548 22995
INMARSAT 3-F3
1 24674U 96070A   03042.03705959  .00000000  00000-0  10000-3 0  9862
2 24674   0.0466 312.9201 0004929   8.2124  11.0119  1.00271985 22516
GOES 10
1 24786U 97019A   03042.28145266  .00000097  00000-0  00000+0 0  5380
2 24786   0.1233 107.1651 0001970 242.8817 117.6409  1.00257289 21261
INMARSAT 3-F4
1 24819U 97027A   03042.26978696 -.00000276 +00000-0 +10000-3 0 08800
2 24819 000.0709 292.6332 0004000 047.5490 203.8697 01.00271981020930
FENGYUN 2A
1 24834U 97029A   03042.96137844 -.00000184  00000-0  00000+0 0  9576
2 24834   2.5548  88.5134 0001583 210.8963 273.6873  1.00284087 20774
HOT BIRD 3
1 24931U 97049A   03023.22766377  .00000000  00000-0  10000-3 0  4210
2 24931   0.0604 227.5595 0010036  81.3762 268.1866  1.00274291 19804
METEOSAT 7
1 24932U 97049B   03043.10917475  .00000008  00000-0  00000+0 0  2476
2 24932   0.1942  59.3598 0001228 267.9267 214.0890  1.00278260 19953
ASTRA 1G
1 25071U 97076A   03042.06871484  .00000000  00000-0  10000-3 0  3911
2 25071   0.0217 242.6326 0075903 319.6138 343.2677  1.00272369 19065
